CAPE
1467 1365 1657 1721 1688 1707 1049 1769 1402 1725 1891 1811 1893 1799 1175 1097 1247 1438 1343 1408 1034 953 1197 1229 1063 798 1048 1180 1332 1133 972 813 431 1190 512 1216 669 1293 1510 1472 1870 1761 1570
1505 1560 1734 1445 1572 1775 1891 1706 1832 1741 1593 1777 1851 1891 1651 1566 1329 1087 1291 1210 1425 1283 983 1070 1009 1349 1305 1203 1204 1109 1035 1197 973 831 1071 1336 1280 1631 1701 1559 1525 1773 1445
1665 1790 1700 1894 1410 1997 1551 1753 1013 606 569 730 1242 1246 1436 1561 1386 1479 1330 852 808 1020 1088 1144 1214 1186 1094 1148 1155 1027 891 803 918 779 645 756 1193 1299 1227 1348 1412 1302 1284
1724 1852 2014 1992 2115 1984 1386 753 638 541 412 334 369 381 404 533 461 893 886 955 769 753 537 557 868 957 865 909 1018 963 904 742 649 650 449 606 692 971 800 627 462 522 616
1888 2176 2118 2058 1608 1109 985 815 664 539 471 423 319 302 215 6 3 36 97 99 100 151 202 448 291 4 25 42 148 586 778 1070 883 793 810 658 328 540 527 503 592 754 903
2444 2276 1929 1842 1421 1281 1182 969 714 488 366 254 157 109 17 0 0 0 0 0 1 0 9 19 24 15 1 0 0 0 0 0 0 0 159 100 94 0 24 165 20 18 3
2413 2123 2105 1857 1698 1427 1160 833 480 357 279 191 127 158 60 0 0 0 0 0 0 1 0 0 19 0 0 0 0 0 0 0 0 0 0 0 0 21 0 18 90 73 55
2429 2161 2155 1823 1492 1264 846 524 392 261 169 105 64 82 3 0 0 0 0 0 0 0 0 2 0 0 0 0 0 0 0 0 1 0 7 16 0 0 0 0 0 0 0
2625 2287 1953 1609 1200 1027 554 576 276 123 57 31 46 22 5 0 0 0 0 0 1 0 0 0 0 0 0 0 0 0 0 0 0 0 0 0 0 0 0 0 0 0 0
2637 1758 1656 1175 887 738 812 438 95 34 37 36 3 0 0 0 0 0 0 0 0 0 0 0 0 0 0 0 0 0 0 0 0 0 0 0 0 14 4 3 6 13 11
1662 1300 1055 750 696 530 249 68 14 31 34 3 0 0 0 0 0 0 0 0 0 0 0 0 0 0 0 0 0 0 0 0 0 0 0 0 15 27 0 0 10 6 5
1207 877 526 584 399 128 33 0 0 0 0 3 0 0 0 0 0 0 0 0 0 0 0 0 0 0 0 0 0 0 0 0 0 0 0 1 0 0 0 1 1 1 8
746 533 466 207 91 1 0 0 0 0 0 0 0 0 0 0 0 0 0 0 0 0 0 0 0 0 0 0 0 0 0 0 0 0 0 0 0 0 0 0 3 2 0
776 480 259 79 1 1 0 0 0 0 0 0 4 0 0 0 0 0 0 0 0 0 0 0 0 0 0 0 0 0 0 0 0 0 0 0 0 0 1 0 0 0 0
857 319 90 2 1 2 1 0 0 0 0 0 0 0 0 0 0 0 0 0 0 0 0 0 0 0 0 0 0 0 0 0 0 0 0 0 0 0 0 0 0 0 0
636 281 68 5 3 2 1 0 0 0 0 0 0 0 0 0 0 0 0 0 0 0 0 0 0 0 0 0 0 0 0 0 0 0 0 0 0 0 0 0 0 0 0
683 175 199 14 1 1 0 0 0 0 0 0 0 0 0 0 0 0 0 0 0 0 0 0 0 0 0 0 0 0 0 0 0 0 0 0 0 0 0 0 0 0 0
634 167 38 2 2 0 0 0 0 0 0 0 0 0 0 0 0 0 0 0 0 0 0 0 0 0 0 0 0 0 0 0 0 0 0 0 0 0 0 0 0 0 0
663 173 70 5 0 0 0 0 0 0 0 0 0 0 0 0 0 0 0 0 0 0 0 0 0 0 0 0 0 0 0 0 0 0 0 0 0 0 0 0 0 0 0
530 121 50 13 25 45 4 0 0 0 0 0 0 0 0 0 0 0 0 0 0 0 0 0 0 0 0 0 0 0 0 0 0 0 0 0 0 0 0 0 0 0 0
247 113 52 167 116 61 7 4 0 0 1 3 0 0 0 0 0 0 0 0 0 0 0 0 0 0 0 0 0 0 0 1 6 0 0 0 0 0 0 0 0 0 0
442 233 138 38 8 7 0 0 0 0 2 4 14 1 0 0 0 0 0 0 1 0 0 0 0 0 0 0 3 5 7 6 10 3 0 0 0 0 0 0 0 0 0
435 279 0 0 0 1 2 1 1 4 4 3 6 0 0 0 0 0 0 0 1 0 0 0 0 0 0 3 4 3 2 8 4 0 0 0 0 0 0 0 0 0 0
164 81 14 0 0 0 0 0 0 0 0 0 0 0 0 0 0 0 0 0 3 3 4 6 7 8 12 17 15 9 9 10 10 0 0 0 0 0 0 0 0 0 0
89 5 0 0 0 0 0 0 0 0 0 0 0 1 5 0 1 0 0 0 0 8 14 8 9 14 23 22 9 16 0 2 11 0 0 0 0 0 0 0 0 4 3
2 0 0 1 1 0 0 0 0 0 0 0 0 0 0 3 3 7 6 5 18 9 20 28 24 3 3 7 30 35 0 0 0 0 0 0 0 0 0 0 3 2 0
CIN
-3 -5 -9 -11 -4 -7 -17 -7 -18 -17 -10 -7 -5 -6 -21 -22 -7 -14 -12 -4 -15 -16 -9 -5 -9 -14 -19 -20 -20 -36 -12 -17 -18 -15 -19 -15 -40 -30 -18 -18 -15 -15 -21
-18 -12 -6 -9 -13 -12 -3 -1 -2 -5 -4 -3 -8 -5 -9 -7 -13 -27 -10 -14 -3 -16 -21 -13 -18 -13 -24 -30 -26 -20 -23 -22 -28 -31 -20 -15 -14 -8 -8 -7 -10 -3 -6
-11 -4 -13 -4 -25 -7 -12 -4 -30 -67 -42 -34 -4 -7 -2 -2 -6 -6 -9 -25 -23 -17 -10 -8 -9 -23 -43 -33 -34 -40 -38 -53 -48 -47 -58 -55 -22 -13 -17 -22 -20 -26 -24
-11 -12 -12 -4 -3 -5 -13 -64 -85 -96 -95 -100 -80 -64 -44 -24 -48 -19 -5 -6 -17 -18 -47 -69 -39 -36 -58 -53 -34 -39 -45 -54 -48 -40 -63 -55 -46 -51 -40 -43 -59 -39 -49
-17 -7 -9 -7 -6 -27 -37 -50 -68 -94 -106 -98 -101 -111 -124 -73 -74 -262 -177 -153 -150 -123 -107 -42 -95 -68 -57 -40 -174 -73 -42 -13 -22 -26 -21 -25 -54 -28 -30 -36 -32 -16 -8
-7 -5 -8 -9 -40 -56 -49 -67 -98 -127 -148 -161 -161 -190 -56 0 0 0 0 0 -157 -3 -217 -191 -207 -275 -3 0 0 0 0 0 0 0 -100 -115 -131 -4 -182 -111 -218 -259 -74
-4 -5 -15 -26 -38 -49 -63 -107 -133 -143 -169 -184 -202 -193 -202 0 0 0 0 0 0 -2 0 0 -83 0 0 0 0 0 0 0 0 0 0 0 0 -281 0 -226 -168 -190 -214
-10 -15 -18 -53 -71 -90 -113 -143 -170 -173 -195 -238 -272 -239 -72 0 0 0 0 0 0 0 0 -1 0 0 0 0 0 0 0 -1 -2 0 -3 -52 0 0 0 0 0 0 0
-13 -35 -65 -96 -140 -123 -144 -107 -170 -203 -225 -226 -247 -299 -65 0 0 0 0 0 -2 0 0 -1 0 0 0 0 0 0 0 0 0 0 0 0 0 0 0 0 0 0 0
-26 -94 -81 -86 -75 -110 -37 -50 -146 -160 -154 -134 -237 0 0 0 0 0 0 0 0 0 0 0 0 0 0 0 0 0 0 0 0 0 0 0 -1 -11 -25 -28 -20 -6 -1
-120 -130 -121 -118 -93 -73 -84 -103 -93 -73 -97 -90 0 0 -1 0 0 0 0 0 0 0 -5 0 0 0 0 0 0 0 0 0 0 0 0 0 -8 -10 0 0 -33 -30 -27
-121 -139 -156 -87 -68 -112 -124 0 0 0 0 -5 0 0 0 0 0 0 0 0 0 0 0 0 0 0 0 0 0 0 0 0 0 0 0 -6 0 0 0 -8 -9 -5 -8
-178 -148 -114 -145 -153 -16 0 0 0 0 0 0 0 0 0 0 0 0 0 0 0 0 0 0 0 0 0 0 0 0 0 0 0 0 0 0 0 0 0 0 -2 -2 0
-124 -141 -156 -182 0 0 0 0 0 0 0 0 -36 0 0 0 0 0 0 0 0 0 0 0 0 0 0 0 0 0 0 0 0 0 0 0 0 0 -5 0 0 0 0
-75 -166 -231 -1 0 0 0 0 0 0 0 0 0 0 0 0 0 0 0 0 0 0 0 0 0 0 0 0 0 0 0 0 0 0 0 0 0 0 0 0 0 0 0
-82 -143 -214 -29 0 0 0 0 0 0 0 0 0 0 0 0 0 0 0 0 0 0 0 0 0 0 0 0 0 0 0 0 0 0 0 0 0 0 0 0 0 0 0
-64 -167 -119 -200 -2 -2 0 0 0 0 0 0 0 0 0 0 0 0 0 0 0 0 0 0 0 0 0 0 0 0 0 0 0 0 0 0 0 0 0 0 0 0 0
-58 -161 -163 -1 -2 0 0 0 0 0 0 0 0 0 0 0 0 0 0 0 0 0 0 0 0 0 0 0 0 0 0 0 0 0 0 0 0 0 0 0 0 0 0
-46 -121 -134 -160 0 0 0 -1 0 0 0 0 0 0 0 0 0 0 0 0 0 0 0 0 0 0 0 0 0 0 0 0 0 0 0 0 0 0 0 0 0 0 0
-45 -110 -115 -134 -65 -46 -4 0 0 0 0 0 0 0 0 0 0 0 0 0 0 0 0 0 0 0 0 0 0 0 0 0 0 0 0 0 0 0 0 0 0 0 0
-64 -91 -92 -23 -8 -33 -2 0 0 -2 -7 -8 -1 0 0 0 0 0 0 0 0 0 0 0 0 0 0 0 0 0 0 -2 -3 0 0 0 0 0 0 0 0 0 0
-7 -28 -28 -40 -14 -4 0 0 0 -1 -1 -2 -4 -38 0 0 0 0 0 0 -6 0 0 -1 0 0 0 0 -2 -6 -2 -2 -3 -7 0 0 0 0 0 0 0 0 0
-11 -6 -6 0 0 -2 -7 -1 -1 -3 -2 -2 -6 0 0 0 0 0 0 0 -2 0 0 0 0 -1 0 -3 -7 -4 -2 -2 -4 -1 0 0 0 0 0 0 0 0 0
-5 -2 -7 0 0 0 0 0 0 0 0 0 0 0 0 0 0 0 0 -1 -4 -4 -3 -5 -8 -4 -2 -3 -6 -3 -2 -2 -3 -1 0 0 0 0 0 0 0 0 0
-37 -26 0 0 -4 0 0 0 0 0 0 0 0 -4 -15 -18 -4 -1 -1 -1 0 -3 -2 -10 -10 -14 -10 -6 -8 -7 -2 -33 -7 0 0 0 0 0 0 0 0 -4 -7
-20 0 0 -4 -8 0 0 0 0 0 0 0 0 0 0 -3 -4 -5 -7 -5 -7 -8 -5 -7 -13 -20 -23 -11 -4 -4 0 0 0 0 0 0 0 0 0 -1 -1 -3 0
Wind_Speed
8 10 10 10 9 9 13 13 14 13 13 15 16 13 12 14 16 17 20 18 17 19 21 18 5 22 24 24 22 23 21 20 23 19 8 12 12 16 12 11 10 10 10
12 12 10 8 8 12 13 13 15 15 14 13 13 12 12 10 11 13 15 15 18 16 21 17 12 12 25 26 25 24 24 20 21 23 18 10 9 7 10 6 11 18 26
9 10 9 8 9 11 12 13 16 17 18 12 14 14 12 12 11 10 9 12 13 16 17 17 19 17 19 24 24 27 26 26 24 25 28 18 13 17 15 13 13 12 19
7 6 5 9 10 10 9 11 12 14 15 15 15 13 14 14 14 13 12 12 12 12 12 11 9 12 16 20 19 24 25 23 20 12 11 17 23 21 22 18 20 18 15
9 6 8 13 9 9 10 11 12 13 13 14 14 15 15 15 16 16 17 18 15 16 15 13 12 14 13 16 17 17 18 16 16 15 15 15 13 18 15 14 14 19 17
9 9 8 7 6 7 8 10 12 13 14 14 15 15 16 17 18 18 18 19 16 14 14 16 14 15 14 15 16 17 17 17 17 17 17 17 18 22 22 21 22 23 22
7 9 8 6 6 7 8 9 12 13 13 15 16 16 16 19 20 20 19 19 17 16 17 16 17 17 18 19 21 21 18 15 14 17 18 19 21 20 23 24 25 25 25
5 6 6 5 5 6 7 8 10 15 16 17 17 17 17 19 20 21 21 20 19 16 16 16 15 16 20 21 21 22 22 19 14 12 14 17 18 21 22 22 24 25 26
4 5 7 7 4 6 4 3 6 9 15 17 17 17 16 19 20 20 21 20 16 16 16 16 16 17 19 21 20 18 18 17 20 15 17 19 23 24 21 22 24 25 27
6 7 4 3 3 4 4 6 10 13 13 13 16 17 17 18 19 20 21 20 21 18 13 16 17 18 19 21 19 18 17 19 21 21 21 21 18 21 21 19 22 24 26
1 0 1 2 4 6 9 12 13 15 13 15 16 17 16 18 19 21 20 19 20 19 15 15 17 19 20 20 19 20 20 21 21 19 18 19 16 17 20 20 20 22 24
2 2 2 4 6 8 8 11 14 15 17 18 18 20 17 16 18 19 20 18 20 19 21 16 18 20 20 20 21 19 19 19 18 20 19 19 20 21 23 24 24 25 24
2 2 2 5 5 7 8 9 12 12 12 16 21 22 20 16 16 17 18 18 19 20 20 21 21 19 18 19 19 18 20 20 19 20 19 20 21 21 22 22 22 22 22
1 1 3 4 5 6 7 8 9 9 5 6 12 16 16 16 17 16 18 19 20 20 20 19 19 18 17 16 17 18 17 19 19 18 18 17 15 16 17 20 22 23 24
1 1 3 3 2 4 5 6 7 8 7 8 7 15 16 16 14 13 17 20 22 23 24 20 16 16 15 15 14 17 18 17 18 18 17 17 17 19 20 19 20 21 22
3 3 0 1 1 3 3 6 10 8 11 9 6 6 12 10 11 16 20 22 23 23 20 21 20 19 19 17 17 16 15 17 16 18 17 17 18 18 19 19 19 20 22
3 1 2 3 3 3 2 4 5 9 10 10 9 8 8 9 14 17 20 22 22 20 19 20 17 16 17 17 16 16 15 15 14 17 16 16 18 19 20 20 20 21 22
7 4 6 6 5 6 5 6 7 7 8 9 11 10 9 11 13 14 17 20 20 18 18 20 16 16 16 15 15 16 15 15 15 16 17 17 18 18 19 20 21 22 23
8 7 8 8 8 7 9 11 10 11 12 10 9 12 9 10 13 16 18 20 21 21 15 15 16 15 14 14 15 16 16 18 16 17 17 17 18 18 19 20 21 21 23
10 8 8 7 6 7 9 10 10 9 9 7 6 8 7 10 13 16 16 17 16 16 18 15 15 13 15 14 16 15 15 13 13 13 15 18 18 18 20 20 21 22 23
8 7 6 9 8 7 9 11 11 10 9 10 7 5 2 5 9 12 12 11 10 14 14 14 15 13 12 13 13 14 14 15 13 13 15 15 16 18 19 19 19 20 21
6 6 7 10 13 9 10 11 11 12 12 13 14 9 4 8 12 13 16 9 11 12 15 13 11 13 11 11 9 9 11 13 13 10 12 15 16 17 17 18 19 19 20
5 5 5 10 13 14 11 13 14 14 15 15 15 10 8 12 15 18 17 13 12 13 9 10 12 12 12 11 10 10 10 12 16 11 12 15 15 14 15 16 18 19 20
16 14 12 10 12 15 14 14 16 18 18 18 17 10 11 13 16 16 13 13 12 11 12 11 11 12 14 16 16 16 15 15 13 12 12 14 14 13 13 17 18 19 19
18 20 15 17 13 14 18 17 16 17 19 17 19 17 12 12 13 12 10 11 12 11 13 13 13 14 16 14 12 14 15 16 14 12 10 11 13 16 17 17 17 21 24
16 21 21 17 18 20 17 17 19 21 22 23 21 19 17 16 16 17 15 15 13 14 13 13 11 12 15 15 16 12 10 11 12 12 13 13 14 15 16 18 21 24 25
Wind_Direction
113 117 106 105 84 45 103 90 85 14 323 307 315 333 326 294 276 268 254 272 283 270 264 291 88 210 235 229 262 259 245 273 247 274 99 135 125 159 129 157 161 173 175
123 123 104 77 26 126 107 79 72 46 335 359 5 354 331 343 326 300 285 293 267 288 260 299 328 327 239 242 256 260 256 295 291 256 302 23 113 112 161 150 183 211 260
102 107 90 67 72 78 78 54 55 69 69 346 5 357 341 15 5 359 32 330 313 296 297 299 290 301 295 268 278 266 273 278 288 290 269 316 338 329 340 345 343 341 326
95 71 52 91 89 75 44 36 29 33 34 38 16 6 25 25 340 343 355 19 20 5 7 26 18 332 307 294 307 285 284 300 311 333 334 321 311 316 316 323 323 330 328
114 78 82 117 72 52 30 12 16 22 7 350 353 356 323 337 321 316 313 309 333 326 335 353 347 340 340 328 325 326 323 326 328 330 330 332 337 330 329 333 331 329 332
114 110 89 40 45 24 14 5 349 347 349 350 339 337 343 334 319 319 311 306 337 344 338 332 345 343 342 342 337 334 329 325 324 325 327 328 329 325 326 329 326 325 326
85 100 77 71 31 17 356 352 329 329 335 330 329 334 338 333 322 317 317 312 331 338 335 333 336 339 334 331 326 325 334 339 336 330 326 323 320 327 324 321 322 322 321
99 98 84 64 23 14 4 338 342 319 315 315 320 325 334 331 325 320 313 316 321 342 341 342 343 343 332 330 328 325 322 330 342 344 339 336 335 330 326 323 320 320 319
134 136 136 128 91 13 6 41 359 345 316 315 316 314 327 326 324 322 317 318 337 339 343 348 351 348 340 334 335 337 337 338 337 340 337 331 326 324 327 326 322 319 318
163 165 151 147 325 14 2 333 334 319 318 317 313 312 317 321 321 321 319 318 322 334 352 347 346 346 344 342 343 341 340 337 329 330 332 331 337 336 333 331 325 323 322
183 257 139 317 336 340 339 332 329 321 316 313 307 304 308 316 316 317 320 321 321 324 342 349 345 343 342 341 338 333 332 331 331 334 336 337 339 342 343 342 339 332 325
351 320 319 339 339 343 345 338 331 320 311 306 298 295 303 312 311 314 316 321 323 324 327 344 346 343 341 340 336 338 339 340 337 334 337 340 340 341 338 336 333 331 327
328 298 331 349 0 352 352 348 345 329 313 303 296 290 293 295 306 310 319 323 325 322 329 332 336 339 342 340 343 343 339 338 338 338 342 341 338 337 338 341 341 341 340
332 327 328 343 355 1 6 20 22 19 12 348 324 290 288 281 291 301 308 319 325 331 333 338 341 343 347 347 346 343 345 344 343 344 345 351 356 356 354 350 344 343 341
316 335 327 347 62 42 33 46 48 48 38 28 352 291 276 282 298 314 323 318 320 323 322 332 342 343 343 346 348 347 348 349 349 348 354 356 356 352 346 347 350 350 349
307 315 343 356 18 30 33 21 8 33 21 10 33 336 308 314 325 323 317 316 320 323 328 326 329 333 336 341 340 346 353 351 349 350 353 353 352 351 349 348 354 353 350
291 262 279 310 311 313 329 334 344 352 356 1 15 4 353 333 318 321 320 318 324 331 327 328 334 335 334 335 338 342 347 354 354 346 349 350 349 346 344 347 347 349 347
292 286 298 295 302 299 298 310 314 316 313 317 327 329 331 328 328 331 331 329 328 327 322 323 328 329 331 333 336 338 343 348 346 341 341 344 345 344 343 345 344 344 342
291 287 296 294 294 295 303 302 305 309 314 310 314 313 318 321 322 322 324 323 319 317 320 326 327 328 330 330 331 331 332 331 338 335 336 339 340 341 341 342 340 341 340
300 292 291 292 293 289 298 305 305 305 312 310 306 312 318 318 314 317 321 326 322 321 323 325 328 327 329 330 329 329 329 332 336 338 336 335 337 339 336 338 340 340 342
294 295 290 299 298 290 302 305 307 305 298 306 289 274 242 311 320 324 322 322 327 327 326 326 328 327 328 327 327 325 326 327 329 334 334 336 337 334 338 341 343 343 345
300 293 303 297 305 303 308 306 306 307 308 310 311 314 231 311 318 322 323 319 322 326 325 332 330 324 326 328 327 327 328 326 326 330 333 333 334 336 338 340 340 344 345
295 302 308 314 304 307 305 307 307 308 309 310 313 314 295 307 314 317 316 313 318 324 327 329 327 326 325 326 325 325 325 324 328 332 331 332 333 336 341 342 341 341 344
311 307 310 312 308 307 307 308 305 309 313 313 314 304 302 306 316 317 316 318 319 320 319 321 321 321 321 322 323 325 322 319 318 328 329 326 329 335 341 338 338 339 341
312 312 309 309 308 306 306 307 308 307 309 308 306 310 308 306 311 317 317 313 317 321 316 316 319 321 317 317 311 310 318 323 319 321 327 330 326 326 330 333 335 335 334
308 312 315 312 315 316 310 308 308 309 311 311 313 309 311 307 311 313 311 313 309 305 306 310 303 310 317 314 308 300 303 309 304 303 309 312 315 320 324 326 328 329 330